All Starts

As of 12.14.17

Mario Gutierrez

Add To
Virtual Stable
Back to Profile

All Starts in Thoroughbred Races

Track Date Race Race Type Purse Horse Name Finish Chart Video
GG 01/01/2008 2 Claiming $23,000 French Roast 6
GG 01/01/2008 4 Allowance $31,000 Get the Money 3
GG 01/01/2008 5 Maiden Claiming $8,000 Lord Redspeed 6
GG 01/01/2008 8 Allowance Optional Claiming $31,000 Song and a Wager 2
GG 01/01/2008 9 Campanile Stakes $75,000 Holy Nova 3
GG 01/03/2008 2 Maiden Special Weight $30,000 Humor Her Along 6
GG 01/03/2008 3 Starter Allowance $20,000 Lunar Mystery 4
GG 01/03/2008 4 Maiden Claiming $15,000 Funky Chanteal 3
GG 01/03/2008 5 Claiming $23,000 Galica 1
GG 01/03/2008 7 Starter Allowance $20,000 Dark Forecast 4
GG 01/03/2008 8 Maiden Claiming $18,000 Loveinamist 4
GG 01/04/2008 3 Claiming $26,000 Sea Topper 4
GG 01/04/2008 5 Claiming $16,000 Handsome Hero 4
GG 01/04/2008 6 Maiden Claiming $15,000 Sporty Jones 3
GG 01/05/2008 3 Stinson Beach Stakes $50,000 Run Brother Ron 6
GG 01/05/2008 4 Claiming $9,500 Never Surrender 6
GG 01/05/2008 5 Maiden Claiming $8,000 Meteor Speed 3
GG 01/05/2008 8 Allowance Optional Claiming $34,000 My Creed 4
GG 01/06/2008 2 Maiden Claiming $10,000 Colorkinetic 2
GG 01/06/2008 3 Claiming $13,000 Flower Hill 1
GG 01/06/2008 4 Maiden Claiming $8,000 Roadrash 8
GG 01/06/2008 5 Maiden Claiming $18,000 Divine Heat 2
GG 01/06/2008 6 Claiming $9,000 Big Swiss 4
GG 01/06/2008 8 Starter Allowance $20,000 Cascadia's Star 3
GG 01/07/2008 2 Maiden Claiming $15,000 Miss Magaldi 4
GG 01/07/2008 4 Claiming $26,000 Dr. Pooh 4
GG 01/07/2008 5 Claiming $10,000 Haydn Concerto (BRZ) 6
GG 01/07/2008 7 Claiming $16,000 Gayle's Gala 8
GG 01/10/2008 1 Maiden Claiming $10,000 Pacific Storm Cat 1
GG 01/10/2008 4 Claiming $20,000 Dancin Gypsy 7
GG 01/10/2008 8 Claiming $10,000 Anawksunamin 3
GG 01/11/2008 1 Claiming $13,000 Commodore Craig 4
GG 01/11/2008 4 Claiming $9,500 Alpine Secret 6
GG 01/11/2008 5 Claiming $10,000 Louder 1
GG 01/11/2008 6 Claiming $26,000 Timeless Passion 4
GG 01/12/2008 1 Allowance Optional Claiming $31,000 Schoolin You 5
GG 01/12/2008 4 Claiming $11,000 Valid Star 4
GG 01/12/2008 5 Maiden Claiming $10,000 Trainingat the Bar 1
GG 01/12/2008 6 Claiming $9,000 Jade Beret 3
GG 01/12/2008 7 Maiden Claiming $15,000 Buccaneer's Gold 11
GG 01/13/2008 1 Allowance $40,000 Full Power Ahead 2
GG 01/13/2008 2 Claiming $20,000 Easy Going Cecil 1
GG 01/13/2008 4 Claiming $9,500 Cocha Bamba 4
GG 01/13/2008 5 Maiden Claiming $8,000 The Joy of Six 9
GG 01/13/2008 6 Claiming $10,000 Count Your Dreams 9
GG 01/13/2008 7 Maiden Claiming $8,000 River Harriet 1
GG 01/13/2008 8 Allowance $31,000 Reality Now 1
GG 01/14/2008 1 Claiming $9,500 Code Magic 5
GG 01/14/2008 2 Claiming $23,000 Cry Me No River 7
GG 01/14/2008 4 Claiming $13,000 French Roast 6
GG 01/14/2008 5 Maiden Claiming $18,000 Down by the Lake 1
GG 01/14/2008 6 Claiming $9,000 Governor Arnold 9
GG 01/14/2008 7 Allowance $31,000 High in the Air 6
GG 01/17/2008 2 Claiming $13,000 Broker's Risk 1
GG 01/17/2008 3 Claiming $12,000 Rileys Rainbow 7
GG 01/17/2008 4 Maiden Claiming $8,000 Hi Lily Hi Lo 3
GG 01/17/2008 8 Claiming $9,000 So Skimming On You 6
GG 01/18/2008 1 Maiden Claiming $10,000 Mescalero Kate 6
GG 01/18/2008 4 Claiming $16,000 Flower Hill 1
GG 01/18/2008 6 Claiming $9,000 R Mattie 4
GG 01/18/2008 7 Claiming $27,000 Thesaratogaexpress 7
GG 01/19/2008 1 Allowance Optional Claiming $31,000 Plata Quemada (ARG) 2
GG 01/19/2008 2 Maiden Claiming $15,000 For Daddy 10
GG 01/19/2008 3 Claiming $9,000 James Creek Red 2
GG 01/19/2008 4 Claiming $9,000 Candygram 3
GG 01/19/2008 6 Claiming $9,000 Red Avenue 11
GG 01/19/2008 8 Claiming $23,000 Tom West 7
GG 01/20/2008 2 Claiming $12,000 Stand by Your Flag 4
GG 01/20/2008 3 Claiming $23,000 Royal Sierra 5
GG 01/21/2008 1 Maiden Special Weight $30,000 Prize Play 5
GG 01/21/2008 3 Claiming $13,000 Devilish Fact 4
GG 01/21/2008 5 Claiming $11,000 Sungold Wonder 6
GG 01/21/2008 7 Claiming $26,000 Get the Money 7
GG 01/21/2008 8 Maiden Claiming $15,000 Another Event 4
GG 01/24/2008 5 Claiming $10,000 Olympic Enforcer 1
GG 01/24/2008 7 Allowance $40,000 Holy Nova 5
GG 01/25/2008 3 Claiming $20,000 A Daisyfield 1
GG 01/25/2008 5 Maiden Claiming $15,000 Loveinamist 4
GG 01/25/2008 8 Maiden Claiming $10,000 Sporty Jones 3
GG 01/26/2008 1 Allowance Optional Claiming $31,000 Galica 3
GG 01/26/2008 2 Claiming $9,500 Libby Green 3
GG 01/26/2008 3 Claiming $13,000 Best Tribute 6
GG 01/26/2008 6 Starter Allowance $20,000 Zain Lass 2
GG 01/26/2008 7 Maiden Claiming $18,000 Country Ledo 5
GG 01/26/2008 8 Allowance Optional Claiming $31,000 Savo Island 2
GG 01/26/2008 9 Maiden Claiming $18,000 Officer Julia 6
GG 01/27/2008 1 Maiden Claiming $8,000 Grimacing 2
GG 01/27/2008 2 Allowance Optional Claiming $34,000 My Creed 1
GG 01/27/2008 4 Claiming $11,000 Louder 3
GG 01/27/2008 6 Starter Allowance $20,000 Bertrand At Mr A's 10
GG 01/27/2008 8 California Derby $150,000 Moonlit Master 9
GG 01/27/2008 9 Allowance Optional Claiming $34,000 Reality Now 5
GG 01/28/2008 1 Claiming $20,000 Hurricane Deputy 6
GG 01/28/2008 3 Claiming $9,000 Jade Beret 4
GG 01/28/2008 4 Maiden Claiming $10,000 Custom Design 2
GG 01/28/2008 5 Claiming $9,500 You Won't Like It 5
GG 01/28/2008 6 Maiden Claiming $15,000 Stormy Jay 8
GG 01/28/2008 7 Claiming $20,000 Lunar Mystery 3
GG 01/28/2008 8 Claiming $9,500 Tarage 2
GG 01/31/2008 1 Claiming $10,000 River Harriet 4
GG 01/31/2008 3 Starter Allowance $20,000 Down by the Lake 1
GG 01/31/2008 4 Claiming $20,000 Evening Fire 4
GG 01/31/2008 5 Maiden Claiming $15,000 Luckybell 8
GG 01/31/2008 6 Claiming $9,500 Valid Star 2
GG 01/31/2008 7 Claiming $26,000 Timeless Passion 4
GG 01/31/2008 8 Maiden Claiming $15,000 Tigress in Jeans 3
GG 02/01/2008 1 Claiming $9,500 Newton's Rule 6
GG 02/01/2008 2 Claiming $26,000 Dark Forecast 7
GG 02/01/2008 3 Claiming $9,000 Phantom Gray 4
GG 02/01/2008 5 Claiming $10,000 Gustavo 6
GG 02/01/2008 6 Maiden Claiming $10,000 Missy Idle 5
GG 02/01/2008 7 Starter Allowance $20,000 Oh So Smooth 7
GG 02/01/2008 8 Maiden Claiming $8,000 Tuggles of War 4
GG 02/02/2008 1 Maiden Claiming $8,000 The Joy of Six 6
GG 02/02/2008 2 Claiming $12,000 Handsome Hero 6
GG 02/02/2008 4 Allowance Optional Claiming $31,000 Robbos Courage 9
GG 02/02/2008 6 Claiming $10,000 Code Magic 1
GG 02/02/2008 8 Starter Allowance $20,000 Saxophone 7
GG 02/02/2008 9 California Oaks $100,000 Shy Baby 7
GG 02/03/2008 3 Claiming $10,000 Coastal Prospector 1
GG 02/03/2008 4 Maiden Claiming $8,000 Miss Magaldi 10
GG 02/03/2008 5 Claiming $9,000 U. S. Soldier 5
GG 02/03/2008 6 Claiming $12,000 Stand by Your Flag 10
GG 02/03/2008 8 Allowance Optional Claiming $36,000 Full Power Ahead 4
GG 02/03/2008 9 Maiden Claiming $8,000 Downtown Lover 1
BM 02/06/2008 2 Claiming $9,000 Christie's Fame 4
BM 02/06/2008 4 Claiming $9,000 Red Avenue 8
BM 02/06/2008 5 Claiming $19,000 Vintner 6
BM 02/06/2008 6 Maiden Claiming $10,000 Gone Skimmin 10
BM 02/07/2008 1 Claiming $27,000 Familiar Stranger 4
BM 02/07/2008 2 Maiden Special Weight $30,000 Scalding Passion 3
BM 02/07/2008 3 Allowance Optional Claiming $36,000 Jack Hes Tops 2
BM 02/07/2008 4 Maiden Claiming $10,000 Deputy Dewey 1
BM 02/07/2008 5 Claiming $9,000 Go Malabar Gold 2
BM 02/07/2008 7 Starter Allowance $20,000 Arnone 4
BM 02/07/2008 8 Claiming $11,000 Fury's Allstar 1
BM 02/08/2008 1 Claiming $11,000 Zig Zag Zoom 1
BM 02/08/2008 2 Claiming $15,000 Include the Grand 2
BM 02/08/2008 5 Maiden Claiming $8,000 Job Well Done 4
BM 02/08/2008 6 Claiming $9,000 James Creek Red 1
BM 02/08/2008 7 Maiden Special Weight $30,000 Silver Man Can 6
BM 02/09/2008 2 Allowance Optional Claiming $31,000 A Daisyfield 4
BM 02/09/2008 3 Princess Stakes $55,000 Tail Spin Topper 2
BM 02/09/2008 6 Claiming $9,000 Timely Brush 2
BM 02/09/2008 8 Maiden Claiming $10,000 Tigress in Jeans 2
BM 02/10/2008 1 Claiming $9,500 Count Your Dreams 4
BM 02/10/2008 7 Claiming $9,000 Gustavo 2
BM 02/11/2008 1 Claiming $13,000 Dr. Einstein 2
BM 02/11/2008 2 Allowance Optional Claiming $31,000 Kneeling's Pride 5
BM 02/11/2008 3 Maiden Claiming $10,000 Custom Design 4
BM 02/11/2008 4 Maiden Claiming $15,000 Dinnerinthediner 4
BM 02/11/2008 6 Claiming $10,000 Caddymaster 1
BM 02/11/2008 7 Claiming $12,000 Young and Fresh 2
STP 04/04/2008 4 Maiden Claiming $6,500 Stouthearted 2 N/A
STP 04/04/2008 7 Allowance Optional Claiming $20,200 Serafina Lady 3 N/A
STP 04/06/2008 4 Claiming $15,600 Powerful Summer 1 N/A
STP 04/06/2008 7 Allowance Optional Claiming $20,200 Bank Emblem 1 N/A
HST 04/26/2008 2 Maiden Claiming $8,600 Trippi Bree 1
HST 04/26/2008 3 Claiming $9,700 Sultry Eyes 5
HST 04/26/2008 4 Maiden Claiming $9,600 Stouthearted 6
HST 04/26/2008 5 Maiden Special Weight $19,500 Diamond Tree 1
HST 04/26/2008 7 Claiming $18,900 Taylor's Route 1
HST 04/26/2008 8 Claiming $9,300 Big Deal Lucille 4
HST 04/27/2008 1 Claiming $18,900 Peaceful Turzia 1
HST 04/27/2008 2 Maiden Claiming $10,500 Alarico 1
HST 04/27/2008 3 Claiming $8,600 Not Just Dreaming 2
HST 04/27/2008 4 Claiming $9,300 Dark Forecast 6
HST 04/27/2008 5 Claiming $9,700 Earl's Diamond 2
HST 04/27/2008 6 Claiming $8,600 Zippy Zak 1
HST 04/27/2008 7 Allowance Optional Claiming $24,000 Opal Haze 7
HST 04/27/2008 8 Claiming $15,800 You'rejustlikeme 1
HST 05/03/2008 1 Claiming $15,800 Windy Day 4
HST 05/03/2008 2 Claiming $9,400 M L's Indian 2
HST 05/03/2008 4 Maiden Claiming $13,900 Saratoga Renegade 1
HST 05/03/2008 5 Maiden Claiming $8,600 Lilabeth 8
HST 05/03/2008 6 Allowance Optional Claiming $24,000 Bank Emblem 1
HST 05/03/2008 7 George Royal Stakes $50,000 True Metropolitan 1
HST 05/03/2008 8 Allowance Optional Claiming $22,000 Sophisticated Sis 6
HST 05/04/2008 1 Maiden Claiming $8,600 Puerto Montt 1
HST 05/04/2008 2 Allowance $20,400 Tendra's Way 5
HST 05/04/2008 3 Maiden Claiming $9,100 Afleet D 1
HST 05/04/2008 4 Maiden Claiming $13,900 Saratoga Avenue 2
HST 05/04/2008 5 Claiming $13,900 Sporty Jones 2
HST 05/04/2008 6 Allowance $20,400 Willie Katchem 5
HST 05/04/2008 7 Allowance Optional Claiming $22,000 Valdero 3
HST 05/10/2008 2 Claiming $9,300 Big Deal Lucille 7
HST 05/10/2008 3 Claiming $9,300 Mining Interactive 5
HST 05/10/2008 4 Claiming $8,600 Not Just Dreaming 1
HST 05/10/2008 5 Maiden Special Weight $19,500 Afleet Allstar 8
HST 05/10/2008 7 Claiming $18,900 Taylor's Route 3
HST 05/10/2008 8 Brighouse Belles Stakes $50,000 Holy Nova 1
HST 05/10/2008 9 Maiden Claiming $10,500 Tribal Belle 9
HST 05/11/2008 2 Maiden Claiming $10,500 The Saratoga Four 6
HST 05/11/2008 3 Claiming $15,800 You'rejustlikeme 4
HST 05/11/2008 6 Maiden Special Weight $19,500 Sunrise Finale 8
HST 05/11/2008 8 Claiming $9,700 Zippy Zak 8
HST 05/11/2008 10 Maiden Claiming $8,600 Shayna Sue 9
HST 05/17/2008 1 Maiden Special Weight $19,500 Joey's Smokin Gun 6
HST 05/17/2008 2 Claiming $9,300 Lion Bill 6
HST 05/17/2008 3 Emerald Downs Stakes $50,000 Dancing Allstar 1
HST 05/17/2008 4 Claiming $21,300 Snow Moon 1
HST 05/17/2008 5 Maiden Claiming $9,100 Clydeja 1
HST 05/17/2008 6 Claiming $8,600 Captain T W Bly 9
HST 05/17/2008 7 Claiming $15,800 Windy Day 1
HST 05/17/2008 8 Claiming $9,400 Good Bad N Ugly 1
HST 05/18/2008 1 Allowance Optional Claiming $21,300 Serafina Lady 2
HST 05/18/2008 3 Maiden Claiming $8,600 Lilabeth 6
HST 05/18/2008 5 Maiden Claiming $13,900 Just for Jesse 3
HST 05/18/2008 6 Claiming $13,900 Trippi Bree 3
HST 05/18/2008 7 Jim Coleman Province Stakes $50,000 Diamond Tree 5
HST 05/18/2008 8 Maiden Claiming $13,900 El Perro Negro 7
HST 05/19/2008 1 Maiden Claiming $15,800 Juvee Hall 1
HST 05/19/2008 2 Allowance Optional Claiming $21,300 Thesaratogaexpress 6
HST 05/19/2008 4 Claiming $13,900 Afleet D 2
HST 05/19/2008 5 Maiden Claiming $13,900 Harvard Grad 4
HST 05/19/2008 7 Allowance Optional Claiming $24,000 Saratoga Renegade 4
HST 05/19/2008 8 Allowance Optional Claiming $24,000 Bank Emblem 1
HST 05/19/2008 9 Allowance $25,000 Sir Gallovic 2
HST 05/19/2008 10 Maiden Claiming $8,600 Brockton Lad 6
HST 05/24/2008 1 Claiming $9,700 Not Just Dreaming 5
HST 05/24/2008 2 Claiming $18,900 Golden Pursuit 2
HST 05/24/2008 3 Claiming $9,400 M L's Indian 1
HST 05/24/2008 4 Maiden Claiming $9,600 Stouthearted 1
HST 05/24/2008 5 Maiden Special Weight $19,500 Saratoga Avenue 5
HST 05/24/2008 6 Maiden Claiming $9,100 Tribal Belle 1
HST 05/24/2008 7 Claiming $8,600 Djinnworth 3
HST 05/24/2008 10 Claiming $9,300 Mining Interactive 7
HST 05/25/2008 1 Claiming $18,900 Hola Mamacita 3
HST 05/25/2008 2 Claiming $8,600 Sunrise Serenade 4
HST 05/25/2008 3 Maiden Claiming $8,600 Last Marker 4
HST 05/25/2008 4 Maiden Claiming $9,100 The Saratoga Four 3
HST 05/25/2008 5 Maiden Special Weight $19,500 Daymaker 1
HST 05/25/2008 7 Claiming $9,700 Paulswithdavid 1
HST 05/25/2008 8 Claiming $9,300 Buckaroo Lou 1
HST 05/25/2008 9 Claiming $15,800 You'rejustlikeme 2
HST 05/25/2008 10 Maiden Claiming $10,500 Triex 5
EMD 05/26/2008 7 Fox Sports Network Handicap $50,000 Winter Warning 8
HST 05/31/2008 1 Claiming $15,800 Clydeja 3
HST 05/31/2008 3 Maiden Claiming $15,800 Another April 5
HST 05/31/2008 4 Maiden Claiming $13,900 Latina Look 4
HST 05/31/2008 5 Maiden Claiming $9,100 Galahad 6
HST 05/31/2008 8 Allowance Optional Claiming $22,000 Heaven On Hold 3
HST 05/31/2008 9 Senate Appointee Stakes $50,000 Holy Nova 1
HST 06/01/2008 2 Claiming $9,300 Market Bell 4
HST 06/01/2008 3 Claiming $15,800 Vintner 6
HST 06/01/2008 4 Claiming $15,800 Chianti Dancer 3
HST 06/01/2008 5 Maiden Claiming $13,900 Iceman 7
HST 06/01/2008 7 Maiden Claiming $10,500 Dancewitharanger 3
HST 06/01/2008 8 Claiming $13,900 Postmaster General 2
HST 06/01/2008 9 Allowance Optional Claiming $22,000 Arkhill 1
HST 06/01/2008 10 Claiming $9,400 Sunny Remark 7
HST 06/07/2008 1 Allowance Optional Claiming $21,300 Serafina Lady 2
HST 06/07/2008 2 Maiden Claiming $15,800 Tricks Or Sweets 5
HST 06/07/2008 4 Maiden Claiming $9,600 In Vogue 3
HST 06/07/2008 6 Claiming $8,600 Djinnworth 10
HST 06/07/2008 8 Claiming $13,900 Good Bad N Ugly 2
HST 06/07/2008 9 John Longden 6000 Stakes $50,000 Sir Gallovic 3
HST 06/07/2008 10 Claiming $9,300 Go Strider 2
HST 06/08/2008 1 Allowance $20,400 Saratoga Renegade 4
HST 06/08/2008 2 Allowance $20,400 Big Shiny 6
HST 06/08/2008 3 Maiden Claiming $13,900 Kwik 2
HST 06/08/2008 5 Maiden Claiming $8,600 Last Marker 9
HST 06/08/2008 6 Maiden Claiming $9,600 Billy Ghost 3
HST 06/08/2008 7 Claiming $9,300 Stouthearted 1
HST 06/08/2008 8 Claiming $15,800 Peacebethejourney 4
HST 06/08/2008 9 Allowance Optional Claiming $24,000 Tango Mango 2
HST 06/08/2008 10 Maiden Special Weight $19,500 Critical Choice 3
HST 06/08/2008 11 Maiden Claiming $15,800 Saratoga Avenue 1
HST 06/14/2008 1 Maiden Special Weight $19,500 Mazel Star 1
HST 06/14/2008 3 Maiden Claiming $13,900 King's Spirit 8
HST 06/14/2008 4 Maiden Claiming $8,600 Trialntribulation 4
HST 06/14/2008 5 Claiming $9,400 Buckaroo Lou 2
HST 06/14/2008 7 Claiming $9,700 Badgetts Star 1
HST 06/14/2008 8 Claiming $17,400 Windy Day 1
HST 06/14/2008 9 Allowance Optional Claiming $21,300 Diligent Prospect 3
HST 06/14/2008 10 Maiden Claiming $9,100 Akickatthekat 4
HST 06/15/2008 1 Claiming $21,300 Tribal Belle 1
HST 06/15/2008 2 Maiden Claiming $13,900 Iceman 1
HST 06/15/2008 3 Claiming $13,900 Trippi Bree 1
HST 06/15/2008 4 Maiden Special Weight $19,500 Cruzlite 2
HST 06/15/2008 5 Claiming $13,900 Afleet D 4
HST 06/15/2008 6 Claiming $9,300 Kwik'e Mark 1
HST 06/15/2008 7 Claiming $9,700 M L's Indian 1
HST 06/15/2008 9 Strawberry Morn Handicap $55,000 Lady Raj 1
HST 06/21/2008 2 Maiden Special Weight $19,500 Dancefourseven 2
HST 06/21/2008 3 Maiden Claiming $8,600 Savahana 9
HST 06/21/2008 4 Maiden Claiming $9,600 Miss Best Bet 1
HST 06/21/2008 5 Maiden Claiming $8,600 Bocephus 5
HST 06/21/2008 6 CTHS Sales Stakes $50,000 Dancing Allstar 1
HST 06/21/2008 7 Claiming $9,300 Go Strider 10
HST 06/21/2008 8 Claiming $17,400 Hola Mamacita 4
HST 06/21/2008 9 Allowance Optional Claiming $24,000 Saratoga Avenue 2
HST 06/22/2008 2 Claiming $9,300 Slews the Believer 7
HST 06/22/2008 3 Claiming $9,300 W W Turbo 1
HST 06/22/2008 5 Claiming $8,600 Sultry Eyes 1
HST 06/22/2008 6 Claiming $8,600 Patriotic 2
HST 06/22/2008 7 Claiming $15,800 Stouthearted 9
HST 06/22/2008 8 CTHS Sales Stakes $50,000 Star Prospector 1
HST 06/22/2008 9 Maiden Claiming $8,600 Flaming Zianah 2
HST 06/28/2008 1 Claiming $9,000 Zippy Zak 3
HST 06/28/2008 4 Claiming $8,600 Sideline 2
HST 06/28/2008 5 Maiden Claiming $8,600 Lilabeth 11
HST 06/28/2008 6 Claiming $9,400 Vintner 5
HST 06/28/2008 7 Claiming $18,900 Feu River 4
HST 06/28/2008 8 Maiden Claiming $9,100 Akickatthekat 2
HST 06/29/2008 1 Maiden Claiming $13,900 Wanna Be Silver 1
HST 06/29/2008 2 Maiden Claiming $8,600 Brave Irish 5
HST 06/29/2008 3 Maiden Special Weight $19,500 Critical Choice 3
HST 06/29/2008 4 Maiden Claiming $9,100 Knight's Allstar 1
HST 06/29/2008 5 Claiming $9,300 Precious Commodity 8
HST 06/29/2008 7 Claiming $15,800 Peacebethejourney 5
HST 06/30/2008 1 Claiming $9,700 M L's Indian 2
HST 06/30/2008 2 Claiming $8,600 Selina's Mask 2
HST 06/30/2008 4 Maiden Claiming $13,900 Kwik 4
HST 06/30/2008 5 Claiming $9,400 Stouthearted 5
HST 06/30/2008 6 Maiden Special Weight $19,500 Irish Delta 1
HST 06/30/2008 7 Claiming $13,900 Chianti Dancer 3
HST 07/01/2008 1 Maiden Claiming $9,000 Nuclear Prospect 2
HST 07/01/2008 2 Maiden Special Weight $19,500 Afleet Allstar 1
HST 07/01/2008 3 Claiming $8,600 Patriotic 3
HST 07/01/2008 4 Claiming $13,900 Jajas Legacy 3
HST 07/01/2008 5 Claiming $9,400 Trippi Bree 1
HST 07/01/2008 6 Allowance Optional Claiming $24,000 Ookashada 3
HST 07/01/2008 7 Allowance $20,400 Regal Isolation 2
HST 07/01/2008 8 Lieutenant Governors' Handicap $100,000 Sir Gallovic 6
HST 07/05/2008 1 Claiming $8,600 Area Code 1
HST 07/05/2008 2 Allowance Optional Claiming $22,000 Tigerheat 2
HST 07/05/2008 4 Maiden Claiming $8,600 Holy Judgement 9
HST 07/05/2008 5 Maiden Claiming $10,500 In Vogue 6
HST 07/05/2008 6 Maiden Claiming $8,600 Hunter's Lad 4
HST 07/05/2008 7 Supernaturel Handicap $50,000 Heaven On Hold 5
HST 07/05/2008 8 Vancouver Sun Handicap $50,000 Lady Raj 1
HST 07/05/2008 9 Maiden Claiming $8,600 Trialntribulation 8
HST 07/06/2008 1 Maiden Claiming $10,500 Diamond Quest 1
HST 07/06/2008 4 Claiming $18,900 Carolyn's Monarch 3
HST 07/06/2008 5 Claiming $9,300 Legally Mine 1
HST 07/06/2008 7 Claiming $17,400 Windy Day 4
HST 07/06/2008 8 Chris Loseth Handicap $50,000 Star Prospector 2
HST 07/06/2008 9 Claiming $9,700 Go Strider 1
CRC 07/12/2008 7 Azalea Stakes (Gr. 3) $250,000 Dancing Allstar 3
NP 07/13/2008 7 John Patrick Handicap $50,000 Holy Nova 1
HST 07/18/2008 1 Claiming $9,700 M L's Indian 1
HST 07/18/2008 3 Claiming $13,900 Peacebethejourney 3
HST 07/18/2008 4 Claiming $8,600 Patriotic 6
HST 07/18/2008 6 Claiming $13,900 Whatwillbewillbe 8
HST 07/18/2008 7 Allowance $20,400 Tigerheat 1
HST 07/18/2008 8 Maiden Claiming $13,900 Kwik 2
HST 07/19/2008 1 Maiden Claiming $9,100 Cheveyo 6
HST 07/19/2008 2 Claiming $15,800 Resident Authority 3
HST 07/19/2008 3 Claiming $9,000 Area Code 3
HST 07/19/2008 4 Maiden Claiming $10,500 Quiet Edge 7
HST 07/19/2008 5 Claiming $9,300 Instinctive 2
HST 07/19/2008 6 Maiden Claiming $13,900 Sweet Sweet Taylor 6
HST 07/19/2008 7 Claiming $9,400 Vintner 2
HST 07/19/2008 8 Allowance Optional Claiming $21,300 Valdero 3
HST 07/20/2008 1 Claiming $8,600 E Commerce 3
HST 07/20/2008 3 Starter Handicap $15,000 Lil Victor G 2
HST 07/20/2008 4 Maiden Claiming $8,600 Hunter's Lad 2
HST 07/20/2008 5 Claiming $9,300 Deputy Allstar 9
HST 07/20/2008 6 Maiden Special Weight $19,500 Harvard Grad 2
HST 07/20/2008 7 Allowance Optional Claiming $24,000 Heaven On Hold 4
HST 07/20/2008 8 Allowance Optional Claiming $24,000 Ookashada 1
HST 07/20/2008 9 Maiden Claiming $8,600 In Vogue 1
HST 07/25/2008 2 Claiming $15,800 Chianti Dancer 5
HST 07/25/2008 3 Maiden Claiming $9,000 Arenalattude 3
HST 07/25/2008 4 Claiming $9,700 Irish Opinion 4
HST 07/25/2008 5 Maiden Claiming $8,600 Holy Judgement 2
HST 07/25/2008 6 Claiming $15,800 Wonniteinvegas 1
HST 07/25/2008 7 Claiming $18,900 Afleet D 1
HST 07/25/2008 8 Maiden Claiming $8,600 Nights Radiance 1
HST 07/26/2008 4 Maiden Special Weight $19,500 Summer Song 3
HST 07/26/2008 5 Maiden Claiming $8,600 Fine Elly Mine 1
HST 07/26/2008 6 Claiming $18,900 Serafina Lady 2
HST 07/26/2008 7 Claiming $8,600 Kachina Dream 1
HST 07/26/2008 8 Allowance Optional Claiming $22,000 Forest Prince 1
HST 07/26/2008 9 Maiden Claiming $10,500 Midnight Search 2
HST 07/27/2008 3 Claiming $8,600 Fisherman's Friend 3
HST 07/27/2008 4 Claiming $9,400 Legally Mine 7
HST 07/27/2008 5 Claiming $9,300 Mining Interactive 1
HST 07/27/2008 7 Allowance Optional Claiming $22,000 Irish Delta 1
HST 07/27/2008 9 Maiden Claiming $8,600 Delightful Miss 6
NP 08/02/2008 7 Count Lathum Handicap $75,000 Valdero 5
HST 08/03/2008 1 Maiden Special Weight $16,400 Devil's Attire 5
HST 08/03/2008 2 Claiming $11,300 Vintner 3
HST 08/04/2008 4 British Columbia Cup Distaff Handicap $55,694 Lady Raj 2
HST 08/08/2008 1 Claiming $10,800 Callinan 5
HST 08/08/2008 4 Maiden Claiming $10,700 Fashionable Affair 2
HST 08/08/2008 5 Claiming $12,700 Irish Opinion 1
HST 08/08/2008 6 Claiming $10,700 Da Svedonya 3
HST 08/09/2008 2 Claiming $10,800 In Vogue 2
HST 08/09/2008 4 Allowance $28,800 Montero 2
HST 08/09/2008 5 Maiden Claiming $10,600 Quiet Edge 1
HST 08/10/2008 2 Maiden Special Weight $26,500 Summer Song 2
HST 08/10/2008 3 Claiming $23,200 McGill 6
HST 08/10/2008 4 Claiming $11,100 Chianti Dancer 7
HST 08/10/2008 5 Claiming $11,300 Mining Interactive 1
HST 08/10/2008 6 Claiming $10,800 Area Code 3
HST 08/10/2008 8 Maiden Claiming $10,600 Blaze Image 5
HST 08/15/2008 2 Claiming $18,600 Good Bad N Ugly 4
HST 08/15/2008 3 Maiden Claiming $12,400 Never Assume 2
HST 08/15/2008 4 Claiming $23,200 French Roast 1
HST 08/15/2008 5 Claiming $11,100 Instinctive 2
HST 08/15/2008 6 Claiming $11,300 Stouthearted 6
HST 08/15/2008 7 Allowance Optional Claiming $31,100 Heaven On Hold 2
HST 08/15/2008 8 Maiden Claiming $16,400 Alarming 8
HST 08/16/2008 1 Maiden Claiming $16,400 Timeless Dancer 3
HST 08/16/2008 5 Claiming $11,100 Dr. J. C. 3
HST 08/16/2008 6 Claiming $16,400 Saratoga Renegade 3
HST 08/16/2008 7 Claiming $26,500 Peaceful Turzia 2
HST 08/16/2008 8 Maiden Claiming $10,600 Holy Judgement 1
EMD 08/17/2008 1 Maiden Claiming $16,200 Gavel 8
EMD 08/17/2008 2 Claiming $9,400 Schu True Shot 5
EMD 08/17/2008 5 Claiming $6,200 Don'tmesswith Bess 2
EMD 08/17/2008 6 Emerald Distaff Handicap $100,000 Lady Raj 7
EMD 08/17/2008 9 Allowance $30,000 Don'twritemeoff 5
HST 08/22/2008 1 Claiming $10,800 Nights Radiance 5
HST 08/22/2008 2 Claiming $12,700 Irish Opinion 6
HST 08/22/2008 3 Maiden Special Weight $26,500 Critical Choice 4
HST 08/22/2008 5 Claiming $11,300 Vintner 1
NP 08/23/2008 8 City of Edmonton Distaff Handicap $100,000 Holy Nova 1
NP 08/23/2008 10 Canadian Derby (Gr. 3) $300,000 Saratoga Avenue 10
HST 08/24/2008 2 Claiming $23,400 Saratoga Attire 6
HST 08/24/2008 5 Claiming $11,100 Count Your Dreams 1
HST 08/24/2008 7 Maiden Special Weight $26,500 Summer Song 1
HST 08/24/2008 8 Allowance Optional Claiming $29,200 Wonniteinvegas 6
HST 08/24/2008 10 Maiden Claiming $10,600 Hunter's Lad 3
HST 08/30/2008 1 Claiming $23,200 Serafina Lady 2
HST 08/30/2008 3 Claiming $10,800 Fine Elly Mine 2
HST 08/30/2008 5 Claiming $23,200 Afleet D 7
HST 08/30/2008 6 Hong Kong Jockey Club Handicap $50,000 Dancing Allstar 5
HST 08/30/2008 7 PNE President's Speed Stakes $50,000 Fuhrever Dancing 3
HST 08/30/2008 8 Claiming $10,800 Lil Victor G 7
HST 08/31/2008 1 Claiming $11,300 Saanichton 6
HST 08/31/2008 2 Maiden Special Weight $16,400 Betuwishihad 9
HST 08/31/2008 4 Claiming $11,100 Chianti Dancer 2
HST 08/31/2008 5 Maiden Claiming $12,400 Akickatthekat 9
HST 08/31/2008 6 Claiming $18,600 Diamond Indy 8
HST 08/31/2008 7 Allowance Optional Claiming $26,500 Peaceful Turzia 4
HST 08/31/2008 8 Richmond Derby Trial Handicap $50,000 Forest Prince 2
HST 09/01/2008 1 Claiming $10,800 Sultry Eyes 6
HST 09/01/2008 4 Maiden Claiming $12,400 Never Assume 10
HST 09/01/2008 5 Claiming $10,700 Patriotic 8
HST 09/01/2008 6 Claiming $16,400 Artic Star 4
HST 09/01/2008 8 Allowance Optional Claiming $28,800 Heaven On Hold 1
HST 09/01/2008 9 S. W. Randall Plate Handicap $50,000 Winter Warning 3
HST 09/01/2008 10 Claiming $11,100 Holy Judgement 1
HST 09/06/2008 1 Claiming $23,200 French Roast 5
HST 09/06/2008 4 Claiming $16,400 Saratoga Renegade 1
HST 09/06/2008 6 Maiden Claiming $10,600 Savahana 5
HST 09/06/2008 7 Maiden Special Weight $26,500 Harvard Grad 2
HST 09/06/2008 9 Claiming $10,800 Area Code 4
HST 09/07/2008 2 Maiden Special Weight $26,500 Critical Choice 3
HST 09/07/2008 7 Maiden Special Weight $26,500 Devil's Attire 3
HST 09/12/2008 1 Claiming $11,100 Chianti Dancer 6
HST 09/12/2008 2 Claiming $11,300 Grace's Star 4
HST 09/12/2008 4 Claiming $10,800 Shirleyanne 1
HST 09/13/2008 1 Claiming $11,300 Stouthearted 1
HST 09/13/2008 2 Claiming $23,200 Serafina Lady 3
HST 09/13/2008 4 Claiming $10,700 Fisherman's Friend 6
HST 09/13/2008 5 Claiming $11,100 Deputy Allstar 6
HST 09/13/2008 7 Claiming $18,600 Rx Registrar 2
HST 09/13/2008 8 Allowance Optional Claiming $28,800 Blasting Gunn 6
HST 09/14/2008 3 Claiming $16,400 Artic Star 1
HST 09/14/2008 4 Claiming $11,300 Count Your Dreams 4
HST 09/14/2008 5 Maiden Claiming $12,400 Eight Black 7
HST 09/14/2008 7 Claiming $26,500 Irish Delta 2
HST 09/14/2008 8 Starter Handicap $22,600 Vintner 1
HST 09/14/2008 9 Allowance $33,900 Lornamahra 2
HST 09/14/2008 10 Maiden Claiming $10,600 Akickatthekat 4
HST 09/19/2008 2 Maiden Claiming $16,400 Harvard Grad 3
HST 09/19/2008 4 Maiden Claiming $10,600 Savahana 2
HST 09/19/2008 5 Claiming $10,800 Nights Radiance 5
HST 09/19/2008 6 Claiming $10,700 Peacebethejourney 1
HST 09/19/2008 7 Claiming $23,200 Adevilgetshisdue 4
HST 09/20/2008 1 Claiming $10,800 When in Rome 4
HST 09/20/2008 4 Allowance Optional Claiming $26,500 Peaceful Turzia 1
HST 09/20/2008 6 Delta Colleen Handicap $50,000 Holy Nova 2
HST 09/20/2008 8 British Columbia Oaks (Gr. 3) $100,000 Summer Song 5
HST 09/20/2008 9 Claiming $12,700 Mining Interactive 4
HST 09/20/2008 10 Claiming $11,300 Kwik'e Mark 3
HST 09/21/2008 1 Maiden Claiming $16,400 Cocoplan 5
HST 09/21/2008 3 Maiden Special Weight $26,500 Devil's Attire 6
HST 09/21/2008 4 Claiming $10,700 Cielo's Lad 3
HST 09/21/2008 5 Allowance Optional Claiming $28,800 Heaven On Hold 5
HST 09/21/2008 6 Sir Winston Churchill Handicap $50,000 Winter Warning 2
HST 09/21/2008 7 Derby Bar and Grill Express Stakes $50,000 Ookashada 4
HST 09/21/2008 8 Derby Consolation Stakes $50,000 Valdero 7
HST 09/21/2008 9 British Columbia Derby (Gr. 3) $250,000 Forest Prince 8
HST 09/21/2008 10 Claiming $10,800 In Vogue 1
HST 09/26/2008 1 Maiden Claiming $12,400 Lady Dallace 5
HST 09/26/2008 2 Maiden Claiming $10,700 Amber Light 9
HST 09/26/2008 3 Claiming $23,200 Vyliena 2
HST 09/26/2008 4 Claiming $10,800 Hunter's Lad 4
HST 09/26/2008 5 Claiming $11,100 Date With Anna 3
HST 09/26/2008 6 Claiming $18,600 Artic Star 4
HST 09/26/2008 7 Claiming $26,500 Spice Trader 2
HST 09/26/2008 8 Maiden Claiming $10,600 Swinging Fox 8
HST 09/27/2008 1 Claiming $10,800 Area Code 1
HST 09/27/2008 5 Maiden Claiming $10,600 Lady Shogun 3
HST 09/27/2008 6 Claiming $11,100 Aid and Abet 2
HST 09/27/2008 7 Claiming $11,100 Deputy Allstar 2
HST 09/27/2008 9 Maiden Claiming $11,000 Black Austin 4
HST 09/28/2008 1 Claiming $10,800 Shirleyanne 4
HST 09/28/2008 4 Claiming $11,300 Saratoga Renegade 4
HST 09/28/2008 5 Maiden Claiming $12,400 Eight Black 7
HST 09/28/2008 6 Claiming $11,300 Grace's Star 2
HST 09/28/2008 7 Claiming $16,400 Lilly Fa Pootz 3
HST 09/28/2008 8 Allowance Optional Claiming $28,800 Blasting Gunn 2
HST 10/04/2008 1 Claiming $11,300 M L's Indian 7
HST 10/04/2008 3 Maiden Special Weight $26,500 Hot Tub Party 7
HST 10/04/2008 4 Maiden Claiming $12,400 Pedegral 1
HST 10/04/2008 5 Maiden Claiming $10,600 Akickatthekat 1
HST 10/04/2008 6 Claiming $18,600 Rx Registrar 5
HST 10/04/2008 7 Sadie Diamond Futurity $100,000 Lornamahra 6
HST 10/05/2008 2 Maiden Special Weight $26,500 Stole Home 2
HST 10/05/2008 3 Maiden Claiming $16,400 Olaxsa 3
HST 10/05/2008 4 Claiming $10,700 Cielo's Lad 1
HST 10/05/2008 5 Claiming $10,800 Ashesinthewind 7
HST 10/05/2008 7 Claiming $23,200 Alarico 2
HST 10/05/2008 9 Jack Diamond Futurity $100,000 Dream Prospect 6
HST 10/11/2008 1 Maiden Claiming $12,400 Any Sunday 1
HST 10/11/2008 2 Claiming $11,300 Sultry Eyes 6
HST 10/11/2008 3 Claiming $11,300 Artic Star 1
HST 10/11/2008 4 Claiming $10,800 Shirleyanne 2
HST 10/11/2008 5 Maiden Claiming $10,600 Swinging Fox 10
HST 10/11/2008 6 Claiming $12,700 Amazin Blue 1
HST 10/11/2008 7 Allowance $33,900 Summer Song 1
HST 10/11/2008 8 Ballerina Stakes (Gr. 3) $100,000 Holy Nova 5
HST 10/11/2008 9 Claiming $11,100 Date With Anna 9
HST 10/12/2008 1 Claiming $10,700 Ruthwell 6
HST 10/12/2008 2 Maiden Claiming $10,600 Lady Shogun 1
HST 10/12/2008 3 Maiden Claiming $10,600 Savahana 8
HST 10/12/2008 4 Claiming $11,300 In Vogue 2
HST 10/12/2008 5 Claiming $11,100 Deputy Allstar 3
HST 10/12/2008 7 Allowance $33,900 Saratoga Avenue 2
HST 10/12/2008 8 Premier's Stakes (Gr. 3) $100,000 True Metropolitan 5
HST 10/12/2008 9 Maiden Claiming $12,400 Cocoplan 7
HST 10/13/2008 1 Claiming $10,800 Fraserview 4
HST 10/13/2008 3 Claiming $18,600 Came Up Roses 1
HST 10/13/2008 4 Claiming $18,600 Holy Judgement 2
HST 10/13/2008 5 Claiming $10,800 Peacebethejourney 2
HST 10/13/2008 6 Claiming $11,100 Hunter's Lad 9
HST 10/13/2008 7 Claiming $18,600 Big Bertha (GER) 2
HST 10/13/2008 8 Allowance Optional Claiming $28,800 Peaceful Turzia 9
HST 10/13/2008 9 Starter Handicap $26,000 Vintner 1
HST 10/13/2008 10 Maiden Claiming $10,600 Black Austin 6
HST 10/13/2008 11 Maiden Special Weight $26,500 Valhalla River 3
HST 10/18/2008 1 Claiming $18,600 Kadence 3
HST 10/18/2008 3 Claiming $10,700 Da Svedonya 2
HST 10/18/2008 4 Maiden Claiming $12,400 Arenalattude 4
HST 10/18/2008 5 Maiden Special Weight $26,500 Critical Choice 4
HST 10/18/2008 6 Allowance Optional Claiming $28,800 Heaven On Hold 3
HST 10/18/2008 9 Allowance $33,900 Summer Song 1
HST 10/19/2008 3 Claiming $11,300 Irish Opinion 2
HST 10/19/2008 6 Claiming $10,800 Cielo's Lad 3
HST 10/19/2008 7 Claiming $18,600 Joyride 3
HST 10/19/2008 8 Claiming $11,100 Deputy Allstar 9
HST 10/19/2008 9 Allowance $33,900 Ookashada 2
HST 10/19/2008 10 Claiming $10,800 Akickatthekat 2
HST 10/25/2008 2 Claiming $16,400 Blasting Gunn 7
HST 10/25/2008 4 Maiden Claiming $10,600 Lady Preacher 3
HST 10/25/2008 5 Claiming $11,100 Lilly Fa Pootz 1
HST 10/25/2008 7 Allowance Optional Claiming $26,500 Gold Ticket 2
HST 10/25/2008 8 Fantasy Stakes $100,000 Vyliena 8
HST 10/25/2008 9 Claiming $12,700 French Roast 1
HST 10/25/2008 10 Claiming $10,800 Sultry Eyes 2
HST 10/26/2008 1 Claiming $11,300 Beulah Land 4
HST 10/26/2008 2 Maiden Claiming $13,800 Colour Me Bold 4
HST 10/26/2008 3 Claiming $11,300 Afleet D 3
HST 10/26/2008 5 Claiming $11,100 Aid and Abet 10
HST 10/26/2008 7 Allowance Optional Claiming $28,800 Saratoga Avenue 8
HST 10/26/2008 8 Ascot Graduation Stakes $100,000 Nuclear Prospect 7
HST 10/26/2008 9 Claiming $23,200 Spice Trader 8
HST 10/26/2008 10 Maiden Claiming $12,400 Cocoplan 1
HST 10/26/2008 11 Claiming $12,700 In Vogue 7
HST 11/01/2008 1 Maiden Special Weight $26,500 Harvard Grad 3
HST 11/01/2008 2 Maiden Claiming $12,400 Arenalattude 3
HST 11/01/2008 4 Claiming $10,800 Cielo's Lad 3
HST 11/01/2008 5 Claiming $11,300 Grace's Star 1
HST 11/01/2008 6 Claiming $10,800 Akickatthekat 2
HST 11/01/2008 7 Claiming $11,100 Hunter's Lad 8
HST 11/01/2008 8 Claiming $23,200 Big Bertha (GER) 6
HST 11/01/2008 9 Starter Handicap $30,000 Vintner 7
HST 11/01/2008 11 Claiming $12,700 Dramatic Charmer 8
HST 11/02/2008 1 Claiming $11,300 Area Code 3
HST 11/02/2008 2 Maiden Claiming $16,400 Devil's Attire 1
HST 11/02/2008 4 Maiden Claiming $10,600 Master Foolish 1
HST 11/02/2008 5 Claiming $11,300 Willie Katchem 2
HST 11/02/2008 6 Claiming $18,600 Organist 9
HST 11/02/2008 7 Allowance Optional Claiming $28,800 Snow Moon 5
HST 11/02/2008 8 Allowance Optional Claiming $28,800 Diamond Berries 5
HST 11/02/2008 9 Claiming $11,100 Ashesinthewind 9
HST 11/02/2008 10 Claiming $10,800 Steps of Wrath 4
HST 11/02/2008 11 Claiming $18,600 Alarico 2
HST 11/02/2008 12 Allowance $33,900 Ookashada 3
GG 12/28/2008 1 Claiming $19,000 Tango Mango 6